CCAYT SCTE-SCEL

Flight info

Callsign CCAYT
Flight time 1h 16m
Altitude 43000
Route N0428F430 ANRO6A ANROS UQ802 EROLO EROL8A
Aircraft C25C/M-SDE2E3FGHRWXY/LB1

Departure

Time 2026-04-25 22:19
Airport El Tepual International Airport (SCTE)

Arrival

Time 2026-04-25 23:36
Airport Comodoro Arturo Merino Benítez International Airport (SCEL)
Time Latitude Longitude Altitude Speed Heading
2026-04-25 22:10 -41.43521 -73.09693 277 ft 0 kts 167°
2026-04-25 22:16 -41.43557 -73.09605 277 ft 11 kts 180°
2026-04-25 22:16 -41.43645 -73.09609 278 ft 13 kts 181°
2026-04-25 22:16 -41.43744 -73.09612 279 ft 15 kts 181°
2026-04-25 22:16 -41.43854 -73.09616 281 ft 17 kts 181°
2026-04-25 22:17 -41.43975 -73.09620 282 ft 18 kts 181°
2026-04-25 22:17 -41.44065 -73.09576 283 ft 13 kts 92°
2026-04-25 22:17 -41.44066 -73.09465 283 ft 12 kts 91°
2026-04-25 22:17 -41.44042 -73.09401 283 ft 6 kts 359°
2026-04-25 22:18 -41.44041 -73.09401 283 ft 0 kts 360°
2026-04-25 22:18 -41.43701 -73.09390 279 ft 103 kts
2026-04-25 22:19 -41.42710 -73.09356 630 ft 166 kts 357°
2026-04-25 22:19 -41.41468 -73.09323 1544 ft 196 kts 358°
2026-04-25 22:19 -41.40006 -73.09266 2510 ft 222 kts 356°
2026-04-25 22:19 -41.38387 -73.09212 3551 ft 240 kts 356°
2026-04-25 22:20 -41.36627 -73.09146 4515 ft 265 kts 356°
2026-04-25 22:20 -41.34710 -73.09079 5488 ft 281 kts 356°
2026-04-25 22:20 -41.32749 -73.09001 6836 ft 283 kts 356°
2026-04-25 22:20 -41.30756 -73.08934 7980 ft 291 kts 355°
2026-04-25 22:21 -41.28703 -73.08860 9209 ft 296 kts 355°
2026-04-25 22:21 -41.26640 -73.08790 10374 ft 303 kts 355°
2026-04-25 22:21 -41.24495 -73.08464 11411 ft 317 kts
2026-04-25 22:21 -41.22296 -73.07956 12454 ft 324 kts
2026-04-25 22:22 -41.20030 -73.07481 13463 ft 334 kts
2026-04-25 22:22 -41.17665 -73.06988 13937 ft 360 kts
2026-04-25 22:22 -41.15091 -73.06430 14291 ft 383 kts
2026-04-25 22:22 -41.12440 -73.05846 15106 ft 388 kts
2026-04-25 22:23 -41.09773 -73.05265 15818 ft 396 kts
2026-04-25 22:23 -41.07030 -73.04686 16552 ft 403 kts
2026-04-25 22:23 -41.04224 -73.04082 17295 ft 409 kts
2026-04-25 22:23 -41.01389 -73.03474 18034 ft 416 kts
2026-04-25 22:24 -40.98501 -73.02851 18727 ft 423 kts
2026-04-25 22:24 -40.95604 -73.02231 19428 ft 428 kts
2026-04-25 22:24 -40.92642 -73.01597 20182 ft 432 kts
2026-04-25 22:24 -40.89690 -73.00965 20932 ft 436 kts
2026-04-25 22:25 -40.86667 -73.00321 21688 ft 441 kts
2026-04-25 22:25 -40.83609 -72.99667 22447 ft 446 kts
2026-04-25 22:25 -40.80523 -72.99011 23200 ft 450 kts
2026-04-25 22:25 -40.77446 -72.98353 23872 ft 454 kts
2026-04-25 22:26 -40.74293 -72.97685 24408 ft 459 kts
2026-04-25 22:26 -40.71126 -72.97010 24910 ft 463 kts
2026-04-25 22:26 -40.68489 -72.96451 25310 ft 465 kts
2026-04-25 22:26 -40.65270 -72.95765 25779 ft 468 kts
2026-04-25 22:27 -40.62026 -72.95080 26198 ft 472 kts
2026-04-25 22:27 -40.58767 -72.94390 26610 ft 475 kts
2026-04-25 22:27 -40.55529 -72.93704 27016 ft 477 kts
2026-04-25 22:27 -40.52236 -72.93009 27402 ft 479 kts
2026-04-25 22:28 -40.48921 -72.92307 27760 ft 482 kts
2026-04-25 22:28 -40.45593 -72.91608 28131 ft 484 kts
2026-04-25 22:28 -40.42300 -72.90910 28628 ft 482 kts
2026-04-25 22:28 -40.38987 -72.90214 29118 ft 481 kts
2026-04-25 22:29 -40.35680 -72.89518 29566 ft 481 kts
2026-04-25 22:29 -40.32359 -72.88869 29993 ft 479 kts
2026-04-25 22:29 -40.29092 -72.88324 30420 ft 477 kts
2026-04-25 22:30 -40.22545 -72.87201 31178 ft 474 kts
2026-04-25 22:30 -40.19281 -72.86642 31540 ft 472 kts
2026-04-25 22:30 -40.16014 -72.86086 31920 ft 470 kts
2026-04-25 22:30 -40.13860 -72.85724 32168 ft 468 kts
2026-04-25 22:31 -40.09568 -72.84991 32604 ft 467 kts
2026-04-25 22:31 -40.06330 -72.84440 32925 ft 466 kts
2026-04-25 22:31 -40.03112 -72.83892 33276 ft 464 kts
2026-04-25 22:31 -39.99955 -72.83356 33613 ft 462 kts
2026-04-25 22:32 -39.96754 -72.82817 33926 ft 461 kts
2026-04-25 22:32 -39.93583 -72.82277 34233 ft 459 kts
2026-04-25 22:32 -39.90446 -72.81747 34510 ft 457 kts
2026-04-25 22:32 -39.87295 -72.81213 34771 ft 456 kts
2026-04-25 22:33 -39.84140 -72.80681 34998 ft 455 kts
2026-04-25 22:33 -39.80990 -72.80152 35257 ft 454 kts
2026-04-25 22:33 -39.77889 -72.79627 35530 ft 453 kts
2026-04-25 22:33 -39.74762 -72.79100 35806 ft 452 kts
2026-04-25 22:34 -39.71641 -72.78575 36055 ft 451 kts
2026-04-25 22:34 -39.68530 -72.78053 36327 ft 450 kts
2026-04-25 22:34 -39.65416 -72.77530 36606 ft 449 kts
2026-04-25 22:34 -39.62357 -72.77014 36885 ft 448 kts 360°
2026-04-25 22:35 -39.59262 -72.76497 37159 ft 447 kts 360°
2026-04-25 22:35 -39.56149 -72.75976 37454 ft 447 kts 359°
2026-04-25 22:35 -39.53112 -72.75468 37743 ft 446 kts 359°
2026-04-25 22:35 -39.50021 -72.74949 38049 ft 445 kts 359°
2026-04-25 22:36 -39.46960 -72.74439 38324 ft 445 kts 359°
2026-04-25 22:36 -39.43868 -72.73923 38620 ft 445 kts 359°
2026-04-25 22:36 -39.40819 -72.73415 38916 ft 444 kts 359°
2026-04-25 22:36 -39.37720 -72.72887 39154 ft 445 kts 359°
2026-04-25 22:37 -39.34691 -72.72325 39376 ft 445 kts 360°
2026-04-25 22:37 -39.31591 -72.71742 39618 ft 445 kts 360°
2026-04-25 22:37 -39.28549 -72.71197 39841 ft 444 kts 359°
2026-04-25 22:37 -39.25480 -72.70654 40082 ft 444 kts 359°
2026-04-25 22:38 -39.22434 -72.70105 40309 ft 444 kts 360°
2026-04-25 22:38 -39.19363 -72.69546 40535 ft 444 kts 359°
2026-04-25 22:38 -39.16294 -72.68991 40753 ft 444 kts 359°
2026-04-25 22:38 -39.13252 -72.68448 40954 ft 444 kts 359°
2026-04-25 22:39 -39.10190 -72.67899 41176 ft 444 kts 359°
2026-04-25 22:39 -39.07158 -72.67352 41393 ft 443 kts 359°
2026-04-25 22:39 -39.04107 -72.66803 41606 ft 443 kts 359°
2026-04-25 22:39 -39.01028 -72.66253 41822 ft 443 kts 359°
2026-04-25 22:40 -38.98006 -72.65712 42026 ft 443 kts 359°
2026-04-25 22:40 -38.94950 -72.65165 42227 ft 443 kts 359°
2026-04-25 22:40 -38.91894 -72.64619 42431 ft 442 kts 359°
2026-04-25 22:40 -38.88845 -72.63887 42630 ft 448 kts
2026-04-25 22:41 -38.85834 -72.63005 42819 ft 447 kts
2026-04-25 22:41 -38.82781 -72.62141 43012 ft 447 kts
2026-04-25 22:41 -38.79763 -72.61289 43198 ft 447 kts
2026-04-25 22:41 -38.76687 -72.60408 43246 ft 450 kts
2026-04-25 22:42 -38.70592 -72.58659 43291 ft 449 kts
2026-04-25 22:42 -38.64498 -72.56927 43292 ft 448 kts
2026-04-25 22:43 -38.58429 -72.55335 43294 ft 448 kts
2026-04-25 22:43 -38.52358 -72.53460 43308 ft 449 kts
2026-04-25 22:44 -38.46354 -72.51214 43304 ft 451 kts
2026-04-25 22:44 -38.40326 -72.49104 43305 ft 449 kts
2026-04-25 22:45 -38.34314 -72.46966 43306 ft 451 kts
2026-04-25 22:45 -38.28273 -72.44818 43309 ft 450 kts
2026-04-25 22:46 -38.22223 -72.42684 43308 ft 450 kts
2026-04-25 22:46 -38.16184 -72.40545 43306 ft 450 kts
2026-04-25 22:47 -38.10155 -72.38423 43310 ft 450 kts
2026-04-25 22:47 -38.04139 -72.36301 43307 ft 450 kts
2026-04-25 22:48 -37.98101 -72.34181 43309 ft 450 kts
2026-04-25 22:48 -37.92087 -72.32070 43306 ft 450 kts
2026-04-25 22:49 -37.86044 -72.29954 43301 ft 450 kts
2026-04-25 22:49 -37.80053 -72.27858 43304 ft 449 kts
2026-04-25 22:50 -37.74012 -72.25749 43304 ft 449 kts
2026-04-25 22:50 -37.68239 -72.23737 43298 ft 448 kts
2026-04-25 22:51 -37.62262 -72.21658 43298 ft 448 kts
2026-04-25 22:51 -37.56575 -72.19682 43288 ft 448 kts
2026-04-25 22:52 -37.50550 -72.17593 43293 ft 448 kts
2026-04-25 22:52 -37.45569 -72.15868 43287 ft 448 kts
2026-04-25 22:53 -37.38552 -72.13442 43292 ft 448 kts
2026-04-25 22:53 -37.32549 -72.11370 43289 ft 447 kts
2026-04-25 22:54 -37.26559 -72.09308 43308 ft 449 kts
2026-04-25 22:54 -37.20521 -72.07231 43292 ft 451 kts
2026-04-25 22:55 -37.14461 -72.05149 43296 ft 453 kts
2026-04-25 22:55 -37.08325 -72.03048 43293 ft 458 kts
2026-04-25 22:56 -37.02153 -72.00935 43285 ft 463 kts
2026-04-25 22:56 -36.95923 -71.98806 43288 ft 466 kts
2026-04-25 22:57 -36.89626 -71.96658 43284 ft 469 kts
2026-04-25 22:57 -36.83319 -71.94512 43267 ft 471 kts
2026-04-25 22:58 -36.76976 -71.92354 43256 ft 473 kts
2026-04-25 22:58 -36.70638 -71.90204 43249 ft 475 kts
2026-04-25 22:59 -36.64274 -71.88048 43240 ft 476 kts
2026-04-25 22:59 -36.57844 -71.85873 43236 ft 476 kts
2026-04-25 23:00 -36.51462 -71.83720 43240 ft 477 kts
2026-04-25 23:00 -36.45042 -71.81556 43245 ft 478 kts
2026-04-25 23:01 -36.38650 -71.79405 43253 ft 478 kts
2026-04-25 23:01 -36.32208 -71.77241 43259 ft 478 kts
2026-04-25 23:02 -36.25814 -71.75098 43262 ft 478 kts
2026-04-25 23:02 -36.19415 -71.72956 43260 ft 478 kts
2026-04-25 23:03 -36.12973 -71.70803 43266 ft 478 kts
2026-04-25 23:03 -36.06569 -71.68667 43263 ft 478 kts
2026-04-25 23:04 -36.01208 -71.66882 43263 ft 478 kts
2026-04-25 23:04 -35.93725 -71.64393 43260 ft 477 kts
2026-04-25 23:05 -35.87333 -71.62272 43257 ft 477 kts
2026-04-25 23:05 -35.80924 -71.60150 43259 ft 477 kts
2026-04-25 23:06 -35.74504 -71.58026 43255 ft 477 kts
2026-04-25 23:06 -35.68123 -71.55917 43237 ft 471 kts
2026-04-25 23:07 -35.61884 -71.53856 43250 ft 459 kts
2026-04-25 23:07 -35.55768 -71.51849 43250 ft 454 kts
2026-04-25 23:08 -35.49677 -71.49843 43247 ft 450 kts
2026-04-25 23:08 -35.43664 -71.47874 43250 ft 446 kts
2026-04-25 23:09 -35.37669 -71.45908 43241 ft 444 kts
2026-04-25 23:09 -35.31752 -71.43973 43242 ft 442 kts
2026-04-25 23:10 -35.25820 -71.42036 43237 ft 440 kts
2026-04-25 23:10 -35.19898 -71.40105 43229 ft 439 kts
2026-04-25 23:11 -35.14030 -71.38194 43220 ft 438 kts
2026-04-25 23:11 -35.08103 -71.36271 43213 ft 442 kts
2026-04-25 23:12 -35.02130 -71.34328 43196 ft 445 kts
2026-04-25 23:12 -34.96129 -71.32384 43182 ft 447 kts
2026-04-25 23:13 -34.90127 -71.30442 42924 ft 454 kts
2026-04-25 23:13 -34.87044 -71.29451 42223 ft 459 kts
2026-04-25 23:13 -34.83938 -71.28445 41536 ft 463 kts
2026-04-25 23:14 -34.80845 -71.27441 40891 ft 464 kts
2026-04-25 23:14 -34.77721 -71.26430 40253 ft 464 kts
2026-04-25 23:14 -34.74581 -71.25421 39636 ft 464 kts
2026-04-25 23:14 -34.71467 -71.24420 39035 ft 462 kts
2026-04-25 23:15 -34.68358 -71.23417 38328 ft 461 kts
2026-04-25 23:15 -34.65287 -71.22430 37618 ft 460 kts
2026-04-25 23:15 -34.62193 -71.21436 36920 ft 458 kts
2026-04-25 23:15 -34.59106 -71.20446 36235 ft 457 kts
2026-04-25 23:16 -34.56058 -71.19467 35577 ft 456 kts
2026-04-25 23:16 -34.52990 -71.18485 34935 ft 456 kts
2026-04-25 23:16 -34.49894 -71.17500 34300 ft 462 kts
2026-04-25 23:16 -34.46760 -71.16496 33588 ft 468 kts
2026-04-25 23:17 -34.43578 -71.15476 32882 ft 476 kts
2026-04-25 23:17 -34.40394 -71.14460 32205 ft 482 kts
2026-04-25 23:17 -34.37105 -71.13408 31533 ft 488 kts
2026-04-25 23:17 -34.33833 -71.12363 30880 ft 491 kts
2026-04-25 23:18 -34.30523 -71.11306 30228 ft 491 kts
2026-04-25 23:18 -34.27217 -71.10250 29472 ft 491 kts
2026-04-25 23:18 -34.23915 -71.09202 28738 ft 489 kts
2026-04-25 23:18 -34.20611 -71.08150 28019 ft 488 kts
2026-04-25 23:19 -34.17361 -71.07118 27329 ft 487 kts
2026-04-25 23:19 -34.14119 -71.06083 26640 ft 475 kts
2026-04-25 23:19 -34.10946 -71.05074 25969 ft 465 kts
2026-04-25 23:19 -34.07855 -71.04100 25309 ft 457 kts
2026-04-25 23:20 -34.04795 -71.03130 24688 ft 450 kts
2026-04-25 23:20 -34.01803 -71.02185 24116 ft 447 kts
2026-04-25 23:20 -33.98796 -71.01235 23498 ft 445 kts
2026-04-25 23:20 -33.95799 -71.00287 22812 ft 443 kts
2026-04-25 23:21 -33.92848 -70.99354 22161 ft 440 kts
2026-04-25 23:21 -33.89897 -70.98424 21512 ft 437 kts
2026-04-25 23:21 -33.86972 -70.97499 20877 ft 428 kts
2026-04-25 23:21 -33.84149 -70.96605 20258 ft 412 kts 10°
2026-04-25 23:22 -33.81408 -70.95740 19645 ft 399 kts 10°
2026-04-25 23:22 -33.78751 -70.94910 19034 ft 389 kts 10°
2026-04-25 23:22 -33.76190 -70.94103 18462 ft 382 kts 10°
2026-04-25 23:23 -33.71059 -70.92496 17206 ft 381 kts 11°
2026-04-25 23:23 -33.68458 -70.91679 16663 ft 388 kts 11°
2026-04-25 23:23 -33.65835 -70.90855 16115 ft 388 kts 11°
2026-04-25 23:23 -33.63254 -70.90044 15578 ft 386 kts 12°
2026-04-25 23:24 -33.60648 -70.89229 15040 ft 383 kts 12°
2026-04-25 23:24 -33.58103 -70.88428 14515 ft 374 kts 12°
2026-04-25 23:24 -33.55701 -70.87299 13976 ft 371 kts 29°
2026-04-25 23:24 -33.53563 -70.85690 13401 ft 365 kts 29°
2026-04-25 23:25 -33.51391 -70.84118 12833 ft 361 kts 30°
2026-04-25 23:25 -33.49258 -70.82546 12372 ft 355 kts 30°
2026-04-25 23:25 -33.47171 -70.81003 11911 ft 350 kts 30°
2026-04-25 23:25 -33.45806 -70.79998 11609 ft 346 kts 30°
2026-04-25 23:26 -33.43103 -70.78015 11007 ft 337 kts 30°
2026-04-25 23:26 -33.41156 -70.76590 10516 ft 314 kts 30°
2026-04-25 23:26 -33.39365 -70.75271 10032 ft 288 kts 30°
2026-04-25 23:26 -33.37722 -70.74070 9637 ft 275 kts 31°
2026-04-25 23:27 -33.36106 -70.72886 9275 ft 269 kts 30°
2026-04-25 23:27 -33.34519 -70.71725 8922 ft 265 kts 30°
2026-04-25 23:27 -33.32943 -70.70571 8578 ft 264 kts 31°
2026-04-25 23:27 -33.31376 -70.69493 8238 ft 262 kts 23°
2026-04-25 23:28 -33.29588 -70.69223 7890 ft 261 kts 355°
2026-04-25 23:28 -33.27774 -70.69402 7555 ft 262 kts 354°
2026-04-25 23:28 -33.25961 -70.69652 7213 ft 263 kts 353°
2026-04-25 23:28 -33.24143 -70.69890 6868 ft 261 kts 354°
2026-04-25 23:29 -33.22952 -70.70037 6645 ft 259 kts 354°
2026-04-25 23:29 -33.21222 -70.70422 6291 ft 248 kts 337°
2026-04-25 23:29 -33.19594 -70.72169 5918 ft 230 kts 299°
2026-04-25 23:29 -33.19227 -70.73338 5820 ft 217 kts 282°
2026-04-25 23:30 -33.19192 -70.75055 5604 ft 205 kts 263°
2026-04-25 23:30 -33.19317 -70.76729 5358 ft 199 kts 263°
2026-04-25 23:30 -33.19765 -70.78235 5096 ft 192 kts 231°
2026-04-25 23:30 -33.20785 -70.79260 4845 ft 193 kts 202°
2026-04-25 23:31 -33.22088 -70.79525 4583 ft 189 kts 177°
2026-04-25 23:31 -33.23374 -70.79456 4331 ft 185 kts 177°
2026-04-25 23:31 -33.24653 -70.79372 4082 ft 183 kts 176°
2026-04-25 23:31 -33.25877 -70.79305 3839 ft 165 kts 176°
2026-04-25 23:32 -33.26956 -70.79245 3633 ft 143 kts 177°
2026-04-25 23:32 -33.27887 -70.79190 3444 ft 126 kts 176°
2026-04-25 23:32 -33.28764 -70.79146 3272 ft 133 kts 178°
2026-04-25 23:32 -33.29661 -70.79099 3107 ft 124 kts 176°
2026-04-25 23:33 -33.30507 -70.79054 2938 ft 119 kts 177°
2026-04-25 23:33 -33.30774 -70.79037 2889 ft 119 kts 176°
2026-04-25 23:33 -33.31376 -70.79002 2775 ft 118 kts 178°
2026-04-25 23:33 -33.32185 -70.78960 2616 ft 118 kts 176°
2026-04-25 23:34 -33.33007 -70.78922 2465 ft 117 kts 176°
2026-04-25 23:34 -33.33810 -70.78876 2311 ft 114 kts 178°
2026-04-25 23:34 -33.34586 -70.78837 2158 ft 108 kts 177°
2026-04-25 23:34 -33.35322 -70.78794 2013 ft 104 kts 178°
2026-04-25 23:35 -33.36035 -70.78743 1908 ft 101 kts 178°
2026-04-25 23:35 -33.36750 -70.78716 1823 ft 104 kts 179°
2026-04-25 23:35 -33.37477 -70.78678 1651 ft 100 kts 180°
2026-04-25 23:35 -33.38124 -70.78642 1559 ft 84 kts 180°
2026-04-25 23:36 -33.38595 -70.78617 1558 ft 42 kts 178°
2026-04-25 23:36 -33.38866 -70.78602 1559 ft 35 kts 179°
2026-04-25 23:36 -33.39086 -70.78636 1557 ft 28 kts 199°
2026-04-25 23:36 -33.39248 -70.78730 1558 ft 22 kts 210°
2026-04-25 23:37 -33.39305 -70.78857 1558 ft 19 kts 268°
2026-04-25 23:37 -33.39310 -70.79020 1558 ft 21 kts 268°
2026-04-25 23:37 -33.39304 -70.79139 1558 ft 6 kts 324°
2026-04-25 23:37 -33.39229 -70.79143 1558 ft 13 kts 356°
2026-04-25 23:38 -33.39223 -70.79191 1558 ft 6 kts 199°
2026-04-25 23:38 -33.39224 -70.79202 1558 ft 1 kts 344°
2026-04-25 23:38 -33.39218 -70.79194 1558 ft 0 kts 57°